Flood From: 22-02-2018 16:00 Until: 23-02-2018 16:00 warning for: Flood Level: Yellow info button

Although rather usual in this region, locally or potentially dangerous phenomena are expected. (such as local winds, summer thunderstorms, rising streams or high waves) Be aware and pay attention to the latest weather updates, especially if you carry out activities exposed to weather or close to a stream or shoreline. 


Meteo18 Weather Cam more information Meteo18 Weather Cam


Thunder radar more information blitzortung!


Rain radar more information rain snow radar


Visit our other weather sites:

Template documentation
and downloads

And another site



Weather Underground History page Text

Daily Summary for August 29, 2016 Units:  Metric    English   Both
« Previous Day
Next Day »
Daily Weekly Monthly Yearly Custom
  High: Low: Average:
Temperature: -17.8 °C -9.4 °C -7.4 °C
Dew Point: -17.8 °C -11.3 °C -10.3 °C
Humidity: Humidity % 59 % 72 %
Wind Speed: 0 km/h 0 km/h 6.4 km/h
Wind Gust: 0 km/h - -
Wind:- - WSW
Pressure: 0 hPa 34510.1 hPa -
Precipitation: 0 mm    
Historical Graphs
 
 
Tabular Data for August 29, 2016
Time Temperature Dew Point Pressure Wind Wind Speed Wind Gust Humidity Rainfall Rate (Hourly)
-17.8 °C -17.8 °C 0 hPa Calm     Humidity % 0 mm
00:02 -6.1 °C -10.4 °C 34510.1 hPa WSW 2.6 km/h 23.3 km/h 61 % 0 mm
00:12 -6.3 °C -10.4 °C 34520.3 hPa WNW 10.3 km/h 18.2 km/h 62 % 0 mm
00:17 -6.3 °C -10.4 °C 34520.3 hPa SW 2.6 km/h 15.6 km/h 63 % 0 mm
00:22 -6.4 °C -10.4 °C 34520.3 hPa SW 7.7 km/h 15.6 km/h 63 % 0 mm
00:32 -6.5 °C -10.6 °C 34520.3 hPa West 5.1 km/h 15.6 km/h 63 % 0 mm
00:42 -6.6 °C -10.6 °C 34533.8 hPa West 5.1 km/h 20.8 km/h 63 % 0 mm
00:47 -6.6 °C -10.6 °C 34533.8 hPa WNW 10.3 km/h 23.3 km/h 63 % 0 mm
00:52 -6.6 °C -10.6 °C 34533.8 hPa SW 2.6 km/h 23.3 km/h 63 % 0 mm
00:57 -6.7 °C -10.7 °C 34533.8 hPa Calm   23.3 km/h 63 % 0 mm
01:02 -6.7 °C -10.6 °C 34533.8 hPa WSW 2.6 km/h 18.2 km/h 64 % 0 mm
01:12 -6.9 °C -10.5 °C 34533.8 hPa NW 2.6 km/h 18.2 km/h 66 % 0 mm
01:17 -7 °C -10.6 °C 34533.8 hPa West 10.3 km/h 10.3 km/h 66 % 0 mm
01:22 -7 °C -10.6 °C 34533.8 hPa WNW 2.6 km/h 10.3 km/h 66 % 0 mm
01:27 -7.1 °C -10.7 °C 34544 hPa WNW 10.3 km/h 23.3 km/h 66 % 0 mm
01:32 -7.1 °C -10.7 °C 34544 hPa WNW 15.6 km/h 23.3 km/h 66 % 0 mm
01:37 -7.1 °C -10.7 °C 34544 hPa WNW 5.1 km/h 23.3 km/h 66 % 0 mm
01:42 -7.2 °C -10.7 °C 34544 hPa WNW 10.3 km/h 23.3 km/h 67 % 0 mm
01:47 -7.3 °C -10.8 °C 34544 hPa WNW 5.1 km/h 23.3 km/h 67 % 0 mm
01:52 -7.3 °C -10.8 °C 34544 hPa WNW 12.9 km/h 23.3 km/h 67 % 0 mm
01:57 -7.3 °C -10.8 °C 34544 hPa WNW 15.6 km/h 20.8 km/h 67 % 0 mm
02:02 -7.4 °C -10.9 °C 34544 hPa NW 5.1 km/h 23.3 km/h 67 % 0 mm
02:12 -7.5 °C -10.8 °C 34544 hPa WNW 2.6 km/h 23.3 km/h 68 % 0 mm
02:17 -7.6 °C -10.9 °C 34544 hPa West 2.6 km/h 23.3 km/h 68 % 0 mm
02:22 -7.6 °C -10.8 °C 34544 hPa WNW 2.6 km/h 23.3 km/h 69 % 0 mm
02:27 -7.7 °C -10.9 °C 34544 hPa WSW 2.6 km/h 18.2 km/h 69 % 0 mm
02:32 -7.7 °C -10.8 °C 34544 hPa Calm   18.2 km/h 70 % 0 mm
02:42 -7.9 °C -10.8 °C 34544 hPa WSW 7.7 km/h 7.7 km/h 71 % 0 mm
02:47 -7.9 °C -10.9 °C 34544 hPa WSW 2.6 km/h 10.3 km/h 71 % 0 mm
02:52 -8 °C -10.8 °C 34544 hPa WSW 5.1 km/h 10.3 km/h 72 % 0 mm
02:57 -8.1 °C -10.9 °C 34544 hPa West 2.6 km/h 10.3 km/h 72 % 0 mm
03:02 -8.2 °C -10.9 °C 34544 hPa SW 2.6 km/h 10.3 km/h 73 % 0 mm
03:12 -8.2 °C -10.9 °C 34544 hPa SW 2.6 km/h 7.7 km/h 73 % 0 mm
03:17 -8.2 °C -10.9 °C 34544 hPa SSW 2.6 km/h 7.7 km/h 73 % 0 mm
03:22 -8.4 °C -11.1 °C 34544 hPa SSW 5.1 km/h 7.7 km/h 73 % 0 mm
03:32 -8.7 °C -11.2 °C 34544 hPa SSW 5.1 km/h 5.1 km/h 74 % 0 mm
03:37 -8.8 °C -11.1 °C 34554.1 hPa SSW 2.6 km/h 7.7 km/h 76 % 0 mm
03:42 -8.8 °C -11 °C 34554.1 hPa SSW 2.6 km/h 7.7 km/h 77 % 0 mm
03:52 -8.7 °C -11 °C 34554.1 hPa SW 2.6 km/h 10.3 km/h 76 % 0 mm
03:57 -8.7 °C -11.1 °C 34554.1 hPa SW 7.7 km/h 10.3 km/h 76 % 0 mm
04:02 -8.8 °C -11.1 °C 34554.1 hPa SSW 5.1 km/h 10.3 km/h 76 % 0 mm
04:12 -8.8 °C -11.1 °C 34554.1 hPa Calm   12.9 km/h 77 % 0 mm
04:17 -8.9 °C -11.2 °C 34554.1 hPa Calm   10.3 km/h 77 % 0 mm
04:22 -8.9 °C -11.1 °C 34554.1 hPa SW 2.6 km/h 7.7 km/h 78 % 0 mm
04:32 -9.1 °C -11.2 °C 34554.1 hPa South 2.6 km/h 5.1 km/h 78 % 0 mm
04:37 -9.2 °C -11.2 °C 34554.1 hPa SSW 2.6 km/h 5.1 km/h 79 % 0 mm
04:42 -9.3 °C -11.3 °C 34554.1 hPa Calm   5.1 km/h 79 % 0 mm
04:47 -9.3 °C -11.2 °C 34554.1 hPa SW 5.1 km/h 5.1 km/h 80 % 0 mm
04:52 -9.3 °C -11.2 °C 34554.1 hPa SW 5.1 km/h 5.1 km/h 80 % 0 mm
04:57 -9.2 °C -11.1 °C 34554.1 hPa WSW 7.7 km/h 7.7 km/h 80 % 0 mm
05:02 -9.2 °C -11.1 °C 34554.1 hPa SW 5.1 km/h 10.3 km/h 80 % 0 mm
05:12 -9.2 °C -11.1 °C 34554.1 hPa WSW 10.3 km/h 10.3 km/h 80 % 0 mm
05:17 -9.2 °C -11.1 °C 34554.1 hPa SSW 10.3 km/h 10.3 km/h 80 % 0 mm
05:22 -9.2 °C -11.1 °C 34554.1 hPa SW 7.7 km/h 18.2 km/h 80 % 0 mm
05:27 -9.2 °C -11.1 °C 34554.1 hPa SW 7.7 km/h 18.2 km/h 80 % 0 mm
05:32 -9.3 °C -11.2 °C 34554.1 hPa SW 7.7 km/h 18.2 km/h 80 % 0 mm
05:42 -9.3 °C -11.1 °C 34554.1 hPa WSW 10.3 km/h 15.6 km/h 81 % 0 mm
05:52 -9.2 °C -11 °C 34544 hPa SW 12.9 km/h 20.8 km/h 81 % 0 mm
05:57 -9.3 °C -11 °C 34544 hPa SW 5.1 km/h 20.8 km/h 82 % 0 mm
06:12 -9.3 °C -11 °C 34544 hPa SW 5.1 km/h 20.8 km/h 82 % 0 mm
06:17 -9.3 °C -10.9 °C 34544 hPa SW 10.3 km/h 20.8 km/h 83 % 0 mm
06:22 -9.3 °C -10.9 °C 34544 hPa WSW 10.3 km/h 20.8 km/h 83 % 0 mm
06:32 -9.4 °C -10.9 °C 34544 hPa SW 10.3 km/h 20.8 km/h 84 % 0 mm
06:42 -9.4 °C -10.9 °C 34554.1 hPa WSW 15.6 km/h 20.8 km/h 84 % 0 mm
06:47 -9.3 °C -10.8 °C 34554.1 hPa SW 7.7 km/h 20.8 km/h 84 % 0 mm
06:52 -9.3 °C -10.8 °C 34554.1 hPa SW 7.7 km/h 23.3 km/h 84 % 0 mm
07:02 -9.3 °C -10.7 °C 34554.1 hPa SW 10.3 km/h 23.3 km/h 85 % 0 mm
07:12 -9.3 °C -10.7 °C 34554.1 hPa WSW 2.6 km/h 20.8 km/h 85 % 0 mm
07:17 -9.3 °C -10.7 °C 34554.1 hPa South 2.6 km/h 18.2 km/h 85 % 0 mm
07:22 -9.3 °C -10.7 °C 34554.1 hPa WSW 5.1 km/h 18.2 km/h 85 % 0 mm
07:32 -9.2 °C -10.6 °C 34567.7 hPa WSW 7.7 km/h 15.6 km/h 85 % 0 mm
07:42 -9.2 °C -10.7 °C 34567.7 hPa South 7.7 km/h 10.3 km/h 84 % 0 mm
07:52 -9.2 °C -10.6 °C 34567.7 hPa SSW 5.1 km/h 15.6 km/h 85 % 0 mm
08:02 -9.1 °C -10.6 °C 34567.7 hPa SW 7.7 km/h 15.6 km/h 84 % 0 mm
08:12 -9.1 °C -10.6 °C 34567.7 hPa SW 12.9 km/h 15.6 km/h 84 % 0 mm
08:17 -9.1 °C -10.6 °C 34577.8 hPa South 5.1 km/h 15.6 km/h 84 % 0 mm
08:22 -9.1 °C -10.6 °C 34567.7 hPa South 5.1 km/h 15.6 km/h 84 % 0 mm
08:32 -8.9 °C -10.4 °C 34577.8 hPa SW 7.7 km/h 15.6 km/h 84 % 0 mm
08:37 -8.9 °C -10.5 °C 34577.8 hPa SW 7.7 km/h 12.9 km/h 83 % 0 mm
08:42 -8.8 °C -10.4 °C 34577.8 hPa SW 10.3 km/h 12.9 km/h 83 % 0 mm
08:52 -8.7 °C -10.3 °C 34577.8 hPa SSW 5.1 km/h 15.6 km/h 83 % 0 mm
08:57 -8.7 °C -10.3 °C 34577.8 hPa Calm   15.6 km/h 83 % 0 mm
09:02 -8.6 °C -10.2 °C 34577.8 hPa SW 7.7 km/h 15.6 km/h 83 % 0 mm
09:12 -8.5 °C -10.1 °C 34577.8 hPa SW 2.6 km/h 12.9 km/h 83 % 0 mm
09:22 -8.4 °C -10.1 °C 34577.8 hPa SSW 7.7 km/h 18.2 km/h 83 % 0 mm
09:32 -8.3 °C -10.1 °C 34577.8 hPa SW 10.3 km/h 20.8 km/h 82 % 0 mm
09:42 -8.2 °C -10.1 °C 34591.4 hPa WSW 12.9 km/h 15.6 km/h 81 % 0 mm
09:52 -8.1 °C -10.1 °C 34591.4 hPa SSW 10.3 km/h 20.8 km/h 80 % 0 mm
09:57 -7.9 °C -9.9 °C 34591.4 hPa WSW 5.1 km/h 18.2 km/h 80 % 0 mm
10:02 -7.7 °C -9.7 °C 34591.4 hPa WSW 2.6 km/h 18.2 km/h 79 % 0 mm
10:12 -7.7 °C -9.9 °C 34591.4 hPa SW 5.1 km/h 18.2 km/h 77 % 0 mm
10:17 -7.6 °C -9.9 °C 34591.4 hPa WSW 15.6 km/h 23.3 km/h 77 % 0 mm
10:22 -7.6 °C -9.8 °C 34591.4 hPa SSW 5.1 km/h 23.3 km/h 78 % 0 mm
10:32 -7.5 °C -9.8 °C 34591.4 hPa WSW 7.7 km/h 25.9 km/h 77 % 0 mm
10:42 -7.6 °C -9.8 °C 34591.4 hPa SSW 12.9 km/h 20.8 km/h 77 % 0 mm
10:52 -7.4 °C -9.7 °C 34591.4 hPa WSW 7.7 km/h 20.8 km/h 77 % 0 mm
10:57 -7.4 °C -9.6 °C 34591.4 hPa SSW 5.1 km/h 20.8 km/h 78 % 0 mm
11:02 -7.5 °C -9.7 °C 34591.4 hPa West 5.1 km/h 20.8 km/h 78 % 0 mm
11:12 -7.6 °C -9.7 °C 34591.4 hPa West 7.7 km/h 18.2 km/h 78 % 0 mm
11:17 -7.5 °C -9.7 °C 34591.4 hPa WNW 12.9 km/h 15.6 km/h 78 % 0 mm
11:22 -7.4 °C -9.7 °C 34591.4 hPa WNW 7.7 km/h 15.6 km/h 77 % 0 mm
11:32 -7.3 °C -9.7 °C 34591.4 hPa SW 20.8 km/h 20.8 km/h 76 % 0 mm
11:37 -7.3 °C -9.7 °C 34591.4 hPa WSW 10.3 km/h 20.8 km/h 76 % 0 mm
11:42 -7.1 °C -9.6 °C 34591.4 hPa WNW 12.9 km/h 20.8 km/h 75 % 0 mm
11:47 -7.1 °C -9.7 °C 34591.4 hPa WNW 12.9 km/h 23.3 km/h 74 % 0 mm
11:52 -7.1 °C -9.8 °C 34591.4 hPa WNW 7.7 km/h 23.3 km/h 73 % 0 mm
11:57 -7 °C -9.8 °C 34591.4 hPa WNW 10.3 km/h 23.3 km/h 73 % 0 mm
12:02 -6.9 °C -9.8 °C 34591.4 hPa SSW 7.7 km/h 23.3 km/h 72 % 0 mm
12:07 -6.8 °C -9.8 °C 34591.4 hPa NW 15.6 km/h 23.3 km/h 71 % 0 mm
12:12 -6.8 °C -9.9 °C 34591.4 hPa West 5.1 km/h 23.3 km/h 70 % 0 mm
12:17 -6.7 °C -10 °C 34591.4 hPa WSW 12.9 km/h 23.3 km/h 69 % 0 mm
12:22 -6.6 °C -10 °C 34591.4 hPa SW 5.1 km/h 23.3 km/h 68 % 0 mm
12:32 -6.6 °C -9.9 °C 34591.4 hPa SW 7.7 km/h 20.8 km/h 68 % 0 mm
12:42 -6.6 °C -9.8 °C 34591.4 hPa West 15.6 km/h 23.3 km/h 69 % 0 mm
12:52 -6.6 °C -9.9 °C 34591.4 hPa SW 12.9 km/h 23.3 km/h 68 % 0 mm
13:02 -6.6 °C -9.9 °C 34591.4 hPa West 7.7 km/h 25.9 km/h 68 % 0 mm
13:12 -6.5 °C -9.9 °C 34591.4 hPa SW 18.2 km/h 23.3 km/h 68 % 0 mm
13:17 -6.6 °C -10.1 °C 34591.4 hPa WSW 10.3 km/h 25.9 km/h 67 % 0 mm
13:22 -6.4 °C -10.1 °C 34591.4 hPa South 7.7 km/h 25.9 km/h 66 % 0 mm
13:32 -6.1 °C -10 °C 34591.4 hPa SW 10.3 km/h 25.9 km/h 64 % 0 mm
13:42 -6 °C -10.2 °C 34591.4 hPa West 10.3 km/h 23.3 km/h 62 % 0 mm
13:47 -6.1 °C -10.2 °C 34591.4 hPa WSW 10.3 km/h 23.3 km/h 63 % 0 mm
13:52 -6.2 °C -10.1 °C 34591.4 hPa SW 2.6 km/h 25.9 km/h 64 % 0 mm
13:57 -6.2 °C -10.1 °C 34591.4 hPa WSW 10.3 km/h 25.9 km/h 64 % 0 mm
14:02 -6.1 °C -10 °C 34591.4 hPa West 5.1 km/h 25.9 km/h 64 % 0 mm
14:12 -6.2 °C -10.1 °C 34591.4 hPa West 15.6 km/h 20.8 km/h 64 % 0 mm
14:17 -6.2 °C -9.9 °C 34591.4 hPa WNW 2.6 km/h 18.2 km/h 65 % 0 mm
14:22 -6.2 °C -9.9 °C 34591.4 hPa SW 7.7 km/h 25.9 km/h 65 % 0 mm
14:27 -6.2 °C -10.1 °C 34591.4 hPa WNW 7.7 km/h 25.9 km/h 64 % 0 mm
14:32 -6.2 °C -9.9 °C 34591.4 hPa NW 10.3 km/h 25.9 km/h 65 % 0 mm
14:37 -6.2 °C -9.9 °C 34591.4 hPa West 12.9 km/h 25.9 km/h 65 % 0 mm
14:42 -6.2 °C -9.8 °C 34591.4 hPa North 20.8 km/h 25.9 km/h 66 % 0 mm
14:47 -6.2 °C -9.7 °C 34591.4 hPa West 18.2 km/h 31.1 km/h 67 % 0 mm
14:52 -6.3 °C -9.7 °C 34591.4 hPa NW 28.5 km/h 31.1 km/h 68 % 0 mm
15:02 -6.5 °C -9.8 °C 34591.4 hPa West 15.6 km/h 31.1 km/h 69 % 0 mm
15:12 -6.5 °C -9.8 °C 34591.4 hPa NNW 10.3 km/h 31.1 km/h 69 % 0 mm
15:17 -6.5 °C -9.8 °C 34591.4 hPa West 5.1 km/h 31.1 km/h 69 % 0 mm
15:22 -6.4 °C -9.8 °C 34591.4 hPa WNW 20.8 km/h 28.5 km/h 68 % 0 mm
15:32 -6.2 °C -9.9 °C 34591.4 hPa West 7.7 km/h 31.1 km/h 66 % 0 mm
15:37 -6.2 °C -9.8 °C 34591.4 hPa West 2.6 km/h 31.1 km/h 66 % 0 mm
15:42 -6.2 °C -9.9 °C 34591.4 hPa WNW 5.1 km/h 31.1 km/h 65 % 0 mm
15:52 -5.9 °C -10 °C 34591.4 hPa NNW 15.6 km/h 20.8 km/h 63 % 0 mm
16:02 -5.9 °C -9.9 °C 34591.4 hPa West 2.6 km/h 20.8 km/h 63 % 0 mm
16:17 -5.8 °C -10.2 °C 34591.4 hPa WSW 5.1 km/h 23.3 km/h 61 % 0 mm
16:22 -5.8 °C -10.3 °C 34591.4 hPa NW 10.3 km/h 23.3 km/h 60 % 0 mm
16:27 -5.7 °C -10.2 °C 34591.4 hPa West 2.6 km/h 23.3 km/h 60 % 0 mm
16:32 -5.7 °C -10.1 °C 34591.4 hPa West 7.7 km/h 20.8 km/h 61 % 0 mm
16:37 -5.7 °C -10.2 °C 34591.4 hPa WNW 7.7 km/h 20.8 km/h 60 % 0 mm
16:42 -5.7 °C -10.1 °C 34577.8 hPa WNW 5.1 km/h 18.2 km/h 61 % 0 mm
16:52 -5.7 °C -9.9 °C 34591.4 hPa WNW 5.1 km/h 18.2 km/h 62 % 0 mm
16:57 -5.7 °C -9.9 °C 34577.8 hPa SW 12.9 km/h 18.2 km/h 62 % 0 mm
17:02 -5.7 °C -9.9 °C 34591.4 hPa West 10.3 km/h 18.2 km/h 62 % 0 mm
17:12 -5.6 °C -10.3 °C 34577.8 hPa WNW 10.3 km/h 15.6 km/h 59 % 0 mm
17:17 -5.6 °C -10.1 °C 34577.8 hPa WSW 7.7 km/h 18.2 km/h 60 % 0 mm
17:22 -5.5 °C -9.9 °C 34577.8 hPa SW 5.1 km/h 18.2 km/h 61 % 0 mm
17:27 -5.5 °C -9.9 °C 34577.8 hPa South 2.6 km/h 18.2 km/h 61 % 0 mm
17:32 -5.5 °C -9.9 °C 34577.8 hPa SW 7.7 km/h 15.6 km/h 61 % 0 mm
17:42 -5.5 °C -9.9 °C 34577.8 hPa SW 2.6 km/h 15.6 km/h 61 % 0 mm
17:52 -5.6 °C -10.1 °C 34577.8 hPa West 5.1 km/h 12.9 km/h 60 % 0 mm
18:02 -5.7 °C -10.1 °C 34577.8 hPa SW 2.6 km/h 12.9 km/h 61 % 0 mm
18:12 -5.7 °C -9.8 °C 34577.8 hPa Calm   10.3 km/h 63 % 0 mm
18:17 -5.8 °C -9.8 °C 34577.8 hPa NNW 2.6 km/h 10.3 km/h 63 % 0 mm
18:22 -5.8 °C -9.9 °C 34577.8 hPa NW 10.3 km/h 10.3 km/h 63 % 0 mm
18:32 -5.9 °C -9.9 °C 34577.8 hPa West 2.6 km/h 10.3 km/h 63 % 0 mm
18:42 -5.9 °C -9.8 °C 34577.8 hPa WNW 25.9 km/h 25.9 km/h 64 % 0 mm
18:52 -5.9 °C -9.9 °C 34577.8 hPa NW 5.1 km/h 28.5 km/h 64 % 0 mm
18:57 -5.9 °C -9.9 °C 34577.8 hPa NNW 10.3 km/h 25.9 km/h 64 % 0 mm
19:02 -5.9 °C -9.9 °C 34577.8 hPa North 5.1 km/h 25.9 km/h 63 % 0 mm
19:12 -5.9 °C -9.9 °C 34577.8 hPa WNW 10.3 km/h 18.2 km/h 63 % 0 mm
19:17 -5.9 °C -9.9 °C 34577.8 hPa NW 7.7 km/h 20.8 km/h 63 % 0 mm
19:22 -5.9 °C -9.8 °C 34577.8 hPa North 7.7 km/h 23.3 km/h 64 % 0 mm
19:27 -5.9 °C -9.8 °C 34577.8 hPa NW 5.1 km/h 23.3 km/h 64 % 0 mm
19:32 -5.9 °C -9.9 °C 34577.8 hPa WNW 5.1 km/h 23.3 km/h 64 % 0 mm
19:42 -6 °C -9.9 °C 34577.8 hPa NW 7.7 km/h 18.2 km/h 64 % 0 mm
19:47 -6 °C -9.8 °C 34591.4 hPa WSW 5.1 km/h 18.2 km/h 65 % 0 mm
19:52 -6.1 °C -9.8 °C 34591.4 hPa NW 5.1 km/h 18.2 km/h 65 % 0 mm
19:57 -6.1 °C -9.8 °C 34591.4 hPa NW 5.1 km/h 18.2 km/h 65 % 0 mm
20:12 -5.9 °C -9.9 °C 34591.4 hPa WNW 2.6 km/h 23.3 km/h 64 % 0 mm
20:17 -6 °C -9.8 °C 34591.4 hPa WNW 2.6 km/h 23.3 km/h 65 % 0 mm
20:22 -6.1 °C -9.7 °C 34591.4 hPa WNW 2.6 km/h 12.9 km/h 66 % 0 mm
20:32 -6.2 °C -9.8 °C 34591.4 hPa NW 2.6 km/h 12.9 km/h 67 % 0 mm
20:42 -6.4 °C -9.9 °C 34601.5 hPa NW 5.1 km/h 12.9 km/h 67 % 0 mm
20:52 -6.6 °C -9.9 °C 34601.5 hPa Calm   10.3 km/h 69 % 0 mm
20:57 -6.7 °C -9.8 °C 34601.5 hPa Calm   5.1 km/h 70 % 0 mm
21:02 -6.8 °C -9.9 °C 34601.5 hPa Calm   5.1 km/h 70 % 0 mm
21:12 -7.2 °C -10.1 °C 34601.5 hPa Calm   2.6 km/h 72 % 0 mm
21:22 -7.4 °C -10.1 °C 34601.5 hPa Calm     73 % 0 mm
21:32 -7.6 °C -10.1 °C 34611.7 hPa Calm     75 % 0 mm
21:42 -7.7 °C -10.1 °C 34611.7 hPa Calm     76 % 0 mm
21:47 -7.8 °C -10.2 °C 34611.7 hPa Calm     76 % 0 mm
21:52 -7.9 °C -10.2 °C 34611.7 hPa Calm     77 % 0 mm
21:57 -8.1 °C -10.2 °C 34611.7 hPa Calm     79 % 0 mm
22:02 -8.2 °C -10.2 °C 34611.7 hPa Calm     80 % 0 mm
22:12 -8.4 °C -10.3 °C 34611.7 hPa Calm     80 % 0 mm
22:17 -8.4 °C -10.4 °C 34611.7 hPa Calm     80 % 0 mm
22:22 -8.5 °C -10.2 °C 34625.2 hPa Calm     82 % 0 mm
22:27 -8.5 °C -10.2 °C 34625.2 hPa Calm     82 % 0 mm
22:32 -8.6 °C -10.3 °C 34625.2 hPa Calm     82 % 0 mm
22:42 -8.7 °C -10.4 °C 34625.2 hPa Calm     82 % 0 mm
22:47 -8.7 °C -10.3 °C 34625.2 hPa Calm     83 % 0 mm
22:52 -8.7 °C -10.3 °C 34625.2 hPa Calm     83 % 0 mm
23:02 -8.8 °C -10.3 °C 34625.2 hPa Calm     84 % 0 mm
23:12 -8.7 °C -10.2 °C 34625.2 hPa Calm     84 % 0 mm
23:17 -8.7 °C -10.2 °C 34625.2 hPa Calm     84 % 0 mm
23:22 -8.7 °C -10.2 °C 34625.2 hPa Calm     84 % 0 mm
23:32 -8.6 °C -10.1 °C 34625.2 hPa Calm     84 % 0 mm
23:37 -8.5 °C -10.1 °C 34625.2 hPa Calm     83 % 0 mm
23:42 -8.4 °C -10.1 °C 34625.2 hPa Calm     83 % 0 mm
23:47 -8.3 °C -9.9 °C 34625.2 hPa Calm     83 % 0 mm
23:52 -8.3 °C -10 °C 34625.2 hPa NW 2.6 km/h   82 % 0 mm
Meteo18
Compliments of Weather Underground - 4 mb

Script developed by  Jim McMurry - jmcmurry@mwt.net Adapted for the template by  Wim van der Kuil - Leuven-Template.eu

You find our weather info also at:

European Weather Network

Weather Underground

Equipment we use:

Weather-station
Davis Vue

Weather-program
Meteobridge

Weather-server
Raspberry PI 2 B+

Provider
1 and 1

Davis Vue

Meteobridge

Raspberry PI 2 B+

1 and 1